パンスターズ彗星

C/2020 H8 ( PanSTARRS )

English version
Home page
Updated on June 29, 2020

---------------------------------------------------------------------

・ プロフィール

発見日 2020年4月30日
発見光度 20.7等
発見者 R. Wainscoat (Pan-STARRS2 1.8-m Ritchey-Chretien reflector at Haleakala)

・ 写真集

・ 軌道要素

Epoch 2020 May 31.0 TT = JDT 2459000.5
T 2020 June 4.13240 TT                                  Rudenko
q   4.6742944            (2000.0)            P               Q
z  +0.0017120      Peri.  128.88793     -0.10975281     -0.38419880
 +/-0.0000489      Node    68.41053     -0.88485001     -0.38234418
e   0.9919978      Incl.   99.64386     +0.45276350     -0.84035957
From 158 observations 2020 Apr. 30-June 17, mean residual 0".4.

・ 光度変化

        m1 = 10.0 + 5 logΔ + 10.0 log r

---------------------------------------------------------------------

軌道要素はM.P.E.C. 2020-M114に掲載されたものです。
光度グラフはComet for Windowsで作成したものです。

---------------------------------------------------------------------

Copyright(C) Seiichi Yoshida (comet@aerith.net). All rights reserved.